Weather Roundup
Issued by NWS Chicago, IL

Home | Current Version | Previous Version | Text Only | Print | Product List | Glossary Off
Versions: 1 2 3 4 5 6 7 8 9 10 11 12 13 14 15 16 17 18 19 20 21 22 23 24 25 26 27 28 29 30 31 32 33 34 35 36 37 38 39 40 41 42 43 44 45 46 47 48 49 50

000
NZUS59 KLOT 132008
HRRLOT

CHICAGO AREA WEATHER ROUNDUP
NATIONAL WEATHER SERVICE CHICAGO/ROMEOVILLE IL
200 PM CST WED DEC 13 2017

NOTE: "FAIR" INDICATES FEW OR NO CLOUDS BELOW 12,000 FEET WITH NO
SIGNIFICANT WEATHER AND/OR OBSTRUCTIONS TO VISIBILITY.

* THESE STATIONS ARE NOT UNDER NWS QUALITY CONTROL. THEY ALSO MAY NOT
  REPORT WEATHER SUCH AS PRECIPITATION OR FOG.

ILZ005-006-012>014-019>023-132100-
NORTHEAST ILLINOIS

CITY           SKY/WX    TMP DP  RH WIND       PRES   REMARKS
OHARE          CLOUDY    38  26  62 W9G21     29.25F
MIDWAY         FLURRIES  36  30  79 SW14      29.27F
AURORA         LGT RAIN  36  32  85 W17       29.29R
LANSING*       LGT SNOW  36  31  81 W21G29    29.30S
JOLIET*        CLOUDY    39  32  77 SW9       29.29F
WAUKEGAN       CLOUDY    34  26  72 W7        29.25F WCI  28
DUPAGE AIRPORT LGT SNOW  35  32  88 W21G33    29.27R FOG     WCI  24
WHEELING       CLOUDY    38  26  62 W16G23    29.27F
KANKAKEE*      RAIN      38  31  76 W20G35    29.34S
MORRIS*        DRIZZLE   41  29  63 W22G28    29.29F
LEWIS AIRPORT* CLOUDY    37  31  81 SW12      29.28F
NORTHERLY ISL    N/A     36  27  70 W9          N/A
$$

WIZ051-052-058>065-066-070>072-132100-
SOUTHEAST WISCONSIN

CITY           SKY/WX    TMP DP  RH WIND       PRES   REMARKS
MILWAUKEE      LGT SNOW  30  28  92 NW5       29.28R VSB 1   WCI  25
KENOSHA*       CLOUDY    35  23  61 W7        29.25F WCI  29
RACINE*        LGT SNOW  32  25  75 NW6       29.28S WCI  26
BURLINGTON       N/A    N/A N/A N/A MISG        N/A
WAUKESHA       LGT SNOW  27  25  93 NW5       29.28S WCI  21
WEST BEND      LGT SNOW  28  27  93 N5        29.28S WCI  23
$$

INZ001>003-010>013-019-020-132100-
NORTHWEST INDIANA

CITY           SKY/WX    TMP DP  RH WIND       PRES   REMARKS
GARY*          LGT SNOW  37  27  65 SW17G33   29.30F VSB 1
MICHIGAN CITY* NOT AVBL
RENSSELAER*    NOT AVBL
VALPARAISO     CLOUDY    37  28  70 SW18G30   29.30F
$$

LMZ740>746-132100-
SOUTHERN LAKE MICHIGAN

STATION/POSITION TIME  SKY/WX   TEMP WIND        PRES    VSBY
                                AIR  DIR/SP/G
                 (UTC)          (F)  (DEG/KT/KT) (MB)    (MI)
HARRISON CRIB    1940            37  240/ 15/ 19   N/A
BURNHAM HARBOR   2000            36  190/  4/ 17   N/A
CALUMET HARBOR   1942            35  220/ 14/ 22  991.3F
BURNS HARBOR     1940            37  230/ 15/ 25  992.6F
MICHIGAN CITY    1940            36  190/ 16/ 20   N/A
$$

ABBREVIATIONS USED IN REMARKS
   TC - TEMPERATURE IN CELSIUS
  WCI - WIND CHILL INDEX
   HX - HEAT INDEX
  VSB - VISIBILITY
$$



USA.gov is the U.S. government's official web portal to all federal, state and local government web resources and services.